www.pogodaiklimat.ru

АРХИВ ПОГОДЫ в Бангоре

Время (UTC), дата Ветер
(напр.,м/с)
 
Видим.   Явления Облачность Т
(С)
Тd
(С)
f
(%)
Тe
(С)
Тes
(С)
Комфортность

P
(гПа)

Po
(гПа)
Тmin
(С)
Tmax
(С)
R
(мм)
SD
(см)
01:35 27.09 СЗ  7
{10} 
4 км    10/10 м
[верхняя средняя] 
+21.0  +20.0  94  +26  +26  душно  1009.8  1002.4  +17.8  +21.1  11.4   
02:23 27.09 СЗ  3 км    10/10 м
[верхняя средняя] 
+20.0  +19.0  94  +24  +24  комфорт  1010.5  1003.4  +17.8  +21.1  14.5   
03:53 27.09 З  16 км    10/10 м
[верхняя средняя] 
+19.4  +17.2  87  +22  +22  комфорт  1011.1  1004.5  +17.8  +21.1  14.5   
04:53 27.09 СЗ  6
{11} 
16 км    10/5 м
[верхняя средняя] 
+17.8  +14.4  80  +17  +17    1013.4  1006.8  +17.8  +21.1  14.5   
05:53 27.09 СЗ  16 км    10/2 м
[верхняя средняя] 
+16.0  +14.0  88  +16  +16    1014.0  1007.1  +11.1  +17.8     
06:53 27.09 СЗ  16 км    10/2 м
[верхняя средняя] 
+15.0  +13.0  88  +14  +14    1015.0  1008.2  +11.1  +17.8     
07:53 27.09 СЗ  16 км    10/2 м
[верхняя средняя] 
+14.4  +12.2  87  +13  +13    1015.8  1008.8  +11.1  +17.8     
08:53 27.09 СЗ  16 км    10/2 м
[верхняя средняя] 
+13.0  +11.0  88  +11  +11    1016.9  1010.2  +11.1  +17.8     
09:53 27.09 СЗ  16 км    8/2 м
[верхняя средняя] 
+12.0  +9.0  82  +10  +10    1018.5  1011.5  +11.1  +17.8     
10:53 27.09 СЗ  16 км    8/2 м
[верхняя средняя] 
+11.7  +7.8  77  +9  +9    1019.9  1012.9  +11.1  +17.8     
11:53 27.09 СЗ  16 км    8/2 м
[верхняя средняя] 
+13.0  +8.0  72  +11  +12    1020.9  1014.2  +11.1  +18.9     
12:53 27.09 С  16 км    8/2 м
[верхняя средняя] 
+14.0  +8.0  67  +12  +13    1021.3  1014.5  +11.1  +18.9     
13:53 27.09 С  16 км    8/2 м
[верхняя средняя] 
+15.0  +8.3  64  +14  +17    1021.4  1014.5  +11.1  +18.9     
14:53 27.09 С  16 км    8/2 м
[верхняя средняя] 
+17.0  +7.0  52  +16  +18    1021.4  1014.5  +11.1  +18.9     
15:53 27.09 СЗ  16 км    8/2 м
[верхняя средняя] 
+18.0  +7.0  49  +17  +19    1021.5  1014.5  +11.1  +18.9     
16:53 27.09 С  16 км    8/2 м
[верхняя средняя] 
+18.3  +7.2  48  +18  +20    1021.0  1014.2  +11.1  +18.9     
17:53 27.09 С  16 км    8/0 м
[верхняя средняя] 
+19.0  +7.0  46  +20  +22    1021.3  1014.5  +11.7  +19.4     
18:53 27.09 С  16 км    8/0 м
[верхняя] 
+19.0  +7.0  46  +19  +21    1021.1  1014.2  +11.7  +19.4     
19:53 27.09 СВ  16 км    8/0 м
[верхняя] 
+18.3  +6.7  47  +18  +19    1021.3  1014.2  +11.7  +19.4     
20:53 27.09 С  16 км    8/0 м
[верхняя] 
+17.0  +7.0  52  +17  +17    1021.2  1014.2  +11.7  +19.4     
21:53 27.09 штиль  16 км    8/0 м
[верхняя] 
+12.0  +9.0  82  +11  +12    1021.5  1014.5  +11.7  +19.4     
22:53 27.09 С  16 км    ясно  +13.3  +8.9  75  +12  +12    1022.4  1015.2  +11.7  +19.4     
23:53 27.09 В  16 км    10/10 м
[верхняя средняя] 
+14.0  +9.0  72  +13  +13    1022.3  1015.2  +11.1  +14.4     
00:53 28.09 штиль  16 км    10/10 м
[верхняя средняя] 
+12.0  +9.0  82  +11  +11    1022.5  1015.6  +11.1  +14.4     
01:53 28.09 штиль  16 км    10/10 м
[верхняя средняя] 
+11.7  +9.4  86  +11  +11    1022.8  1015.9  +11.1  +14.4     
02:53 28.09 штиль  16 км    10/10 м
[верхняя средняя] 
+13.0  +9.0  77  +13  +13    1021.8  1014.9  +11.1  +14.4     
03:53 28.09 штиль  16 км    10/10 м
[верхняя средняя] 
+12.2  +8.9  80  +12  +12    1021.3  1014.2  +11.1  +14.4     
04:53 28.09 штиль  16 км    10/10 м
[верхняя средняя] 
+11.1  +8.9  86  +10  +10    1021.6  1014.5  +11.1  +14.4     
05:53 28.09 СВ  16 км    10/10 м
[верхняя средняя] 
+12.0  +9.0  82  +10  +10    1021.0  1014.2  +10.6  +11.7     
06:53 28.09 С  16 км    10/10 м
[верхняя средняя] 
+12.0  +9.0  82  +10  +10    1020.6  1013.5  +10.6  +11.7     
07:53 28.09 С  16 км    10/10 м
[верхняя средняя] 
+11.1  +8.9  86  +9  +9    1021.0  1014.2  +10.6  +11.7     
08:53 28.09 С  13 км    10/10 м
[верхняя средняя] 
+11.0  +9.0  87  +9  +9    1020.8  1013.9  +10.6  +11.7     
09:53 28.09 С  16 км    10/10 м
[верхняя средняя] 
+11.0  +9.0  87  +9  +9    1021.4  1014.2  +10.6  +11.7     
10:53 28.09 С  16 км    10/10 м
[верхняя средняя] 
+11.1  +10.0  93  +9  +9    1021.1  1014.2  +10.6  +11.7     
11:53 28.09 С  16 км    10/10 м
[верхняя средняя] 
+11.0  +9.0  87  +9  +9    1020.6  1013.5  +11.1  +12.8  0.5   
12:53 28.09 С  16 км    10/10 м
[верхняя средняя] 
+11.0  +9.0  87  +9  +9    1020.2  1013.2  +11.1  +12.8  0.5   
13:31 28.09 С  16 км    10/10 м
[верхняя средняя] 
+11.0  +9.0  87  +8  +8    1019.9  1013.2  +11.1  +12.8  0.5   
14:53 28.09 СВ  16 км    10/10 м
[верхняя] 
+12.0  +9.0  82  +10  +10    1018.9  1011.9  +11.1  +12.8  0.5   
15:53 28.09 С  16 км    10/10 м
[верхняя] 
+12.0  +10.0  88  +10  +10    1018.6  1011.5  +11.1  +12.8  0.5   
16:53 28.09 С  16 км    10/10 м
[верхняя] 
+12.8  +10.0  83  +11  +11    1018.2  1011.2  +11.1  +12.8  0.5   
17:53 28.09 С  16 км    10/10 м
[верхняя] 
+13.0  +10.0  82  +11  +11    1017.7  1010.8  +8.9  +15.0     
18:53 28.09 С  16 км    8/8 м
[верхняя] 
+14.0  +9.0  72  +14  +15    1017.4  1010.5  +8.9  +15.0     
19:53 28.09 штиль  16 км    8/5 м
[верхняя] 
+15.0  +9.4  69  +15  +17    1017.0  1010.2  +8.9  +15.0     
20:53 28.09 СВ  16 км    5/2 м
[верхняя] 
+14.0  +9.0  72  +13  +14    1017.4  1010.5  +8.9  +15.0     
21:53 28.09 СВ  16 км    2/0 м
[верхняя] 
+11.0  +9.0  87  +10  +10    1017.7  1010.8  +8.9  +15.0     
22:53 28.09 штиль  16 км    2/0 м
[верхняя] 
+9.4  +8.9  97  +8  +8    1017.8  1010.8  +8.9  +15.0     
23:53 28.09 штиль  16 км  слабый дождь  ясно  +9.0  +8.0  93  +8  +8    1017.6  1010.5  +6.1  +9.4     
00:53 29.09 штиль  16 км    ясно  +8.0  +7.0  93  +7  +7    1017.7  1010.5  +6.1  +9.4     

 

Местоположение метеостанции Bangor International Airport: широта 44.7972 долгота -68.8186 высота над уровнем моря 58 м.

В архиве по умолчанию представлена погода в Бангоре за последние 1-2 суток. Обновление информации о фактической погоде в базе происходит ежечасно! Архивные данные за месяц целиком и за предыдущие месяцы Вы можете получить, выбрав интересующий диапазон дат из раскрывающегося списка и нажав кнопку "Ввод!".

Внимание! Архив погоды МЕТАР в базе сайта в настоящее время начинается c 1 января 2013 г. Нет смысла пытаться выбрать более раннюю дату.

Внимание! Время в таблицах - всемирное. Для получения местного времени необходимо прибавить поправку, которая в Бангоре равна -5 ч.

Ветер - указаны скорость ветра в м/с и направление, откуда дует ветер: С - северный, СВ - северо-восточный, В - восточный, ЮВ - юго-восточный, Ю - южный, ЮЗ - юго-западный, З - западный, СЗ - северо-западный.
Видимость - горизонтальная дальность видимости в метрах или километрах. При видимости от 1 до 10 км при отсутствии осадков обычно наблюдается дымка, при ухудшении видимости до 1 км и менее - туман. В сухую погоду видимость может ухудшаться дымом, пылью или мглою.
Атмосферные явления - указаны явления, наблюдавшиеся в указанный момент времени.
Облачность - указаны через наклонную черту верхняя и нижняя облачность в баллах и высота нижней границы облаков в метрах. Внимание: облачность, как и прочие метеорологические величины в США измеряются автоматическими метеостанциями. Указанные значения в баллах носят условный характер и показывают процент времени, в течение которого, в среднем, лазерный луч высотомера отражался от облаков обратно.
T - Температура воздуха - температура, измеренная на высоте 2 м над землей.
Td - Температура точки росы - температура, при понижении до которой содержащийся в воздухе водяной пар достигнет насыщения.
f - Относительная влажность воздуха - влажноcть воздуха, измеренная на высоте 2 м над землей.
Te - Эффективная температура - температура, которую ощущает одетый по сезону человек в тени. Характеристика душности погоды. При расчете учитывается влияние влажности воздуха и скорости ветра на теплоощущения человека.
Tes - Эффективная температура на солнце - температура, которую ощущает человек, с поправкой на солнечный нагрев. Характеристика знойности погоды. Зависит от высоты солнца над горизонтом, облачности и скорости ветра. Ночью, в пасмурную погоду, а также при ветре 12 м/с и более поправка равна нулю.
P - Атмосферное давление - приведенное к уровню моря атмосферное давление.
Po - Атмосферное давление - измеренное на уровне метеостанции атмосферное давление.
Tmin - Минимальная температура - минимум температуры воздуха на высоте 2 м над землей.
Tmax - Максимальная температура - максимум температуры воздуха на высоте 2 м над землей.
R - Количество осадков - Количество выпавших осадков за 3 или 6 часов, мм.
SD - Снежный покров - Высота снежного покрова, см.